Location: Lecco
(45.8566°N, 9.3977°E)
Time: 20:57:24
(UTC+02:00)

Courier 1B Rocket - All Passes

Search period start: 25 August 2019 00:00
Search period end: 04 September 2019 00:00
Orbit: 920 x 1202 km, 28.3° (Epoch: 24 August)

Date Brightness Start Highest point End Pass type
(mag) Time Alt. Az. Time Alt. Az. Time Alt. Az.
25 Aug - 03:22:14 10° S 03:25:39 14° SSE 03:29:09 10° SE visible
25 Aug - 05:12:55 10° SW 05:18:00 20° S 05:23:13 10° SE visible
25 Aug - 07:05:54 10° SW 07:10:28 17° SSW 07:15:06 10° SSE daylight
26 Aug - 02:23:55 10° SSE 02:24:58 10° SSE 02:26:02 10° SSE visible
26 Aug - 04:12:29 10° SSW 04:17:11 18° S 04:22:02 10° SE visible
26 Aug - 06:04:45 10° SW 06:09:38 19° S 06:14:37 10° SSE visible
26 Aug - 08:00:04 10° SW 08:01:59 11° SSW 08:03:55 10° S daylight
27 Aug - 03:12:22 10° SSW 03:16:25 16° SSE 03:20:36 10° SE visible
27 Aug - 05:03:53 10° SW 05:08:47 19° S 05:13:52 10° SE visible
27 Aug - 06:57:38 10° SW 07:01:12 14° SSW 07:04:49 10° S daylight
28 Aug - 02:12:46 10° S 02:15:42 13° SSE 02:18:44 10° SE visible
28 Aug - 04:03:16 10° SW 04:07:59 19° S 04:12:53 10° SE visible
28 Aug - 05:56:09 10° SW 06:00:24 16° SSW 06:04:45 10° SSE visible
29 Aug - 03:02:54 10° SSW 03:07:13 17° S 03:11:42 10° SE visible
29 Aug - 04:55:05 10° SW 04:59:36 18° S 05:04:16 10° SSE visible
29 Aug - 06:50:50 10° SSW 06:51:55 10° SSW 06:53:01 10° SSW daylight
30 Aug - 02:02:53 10° SSW 02:06:30 15° SSE 02:10:15 10° SE night (unlit)
30 Aug - 03:54:17 10° SW 03:58:48 18° S 04:03:30 10° SE visible
30 Aug - 05:48:05 10° SW 05:51:10 13° SSW 05:54:19 10° S visible
31 Aug - 01:03:25 10° S 01:05:51 12° SSE 01:08:19 10° SE night (unlit)
31 Aug - 02:53:44 10° SW 02:58:03 18° S 03:02:32 10° SE visible
31 Aug - 04:46:37 10° SW 04:50:24 15° SSW 04:54:18 10° SSE visible
01 Sep - 01:53:26 10° SSW 01:57:20 16° S 02:01:22 10° SE night (unlit)
01 Sep - 03:45:35 10° SW 03:49:39 16° S 03:53:51 10° SSE visible
02 Sep - 00:53:28 10° SSW 00:56:40 14° SSE 00:59:58 10° SE night (unlit)
02 Sep - 02:44:50 10° SW 02:48:54 17° S 02:53:09 10° SE visible
02 Sep - 04:38:49 10° SW 04:41:12 12° SSW 04:43:38 10° S visible
02 Sep - 23:54:09 10° S 23:56:03 11° SSE 23:58:00 10° SE night (unlit)
03 Sep - 01:44:18 10° SW 01:48:12 17° S 01:52:15 10° SE night (unlit)
03 Sep - 03:37:15 10° SW 03:40:29 14° SSW 03:43:49 10° SSE visible
